OPS 6182 (DMSP 5D-1 F3)

导读

OPS 6182(又名DMSP 5D-1 F3)是美国国防气象卫星计划(DMSP)下的第三代气象卫星,于1978年5月1日从范登堡空军基地发射升空。它运行在太阳同步轨道,主要为美军提供全球气象观测数据,同时也向民间开放云图、海表温度、水汽等气象信息,支持军事调度与环境监测,是美国早期专用军事气象卫星体系的重要组成部分。

Basic Information
目录编号:
10820
目录名称:
OPS 6182 (DMSP 5D-1 F3)
国际标识:
1978-042A
轨道中心:
EARTH
卫星名称:
OPS 6182 (DMSP 5D-1 F3)
卫星全名:
--
卫星状态:
在轨 (已飞行17606 天)
发射日期:
1978-05-01 UTC
国别 :
美国 (US)
星等 :
--
Orbit Information
数据来源 国际轨道数据 AOE轨道数据
星历时间 2026-07-13T19:55:12+0800
20小时前
查看轨道信息
2026-07-10T23:00:00+0800
3天前
查看轨道信息
半长轴 7142.924km 7142.927km
偏心率 0.0008062 0.0008018
轨道倾角 98.448° 98.449°
近地点辐角 269.374° 278.800°
升交点赤经 28.892° 26.069°
平近点角 90.652° 342.754°
近地点 759.028km 759.062km
远地点 770.546km 770.518km
周期 100.132分钟 100.132分钟
每日圈数 14.380989 14.380981
Detailed Information
使用方式:
暂无
2D Orbit Map
3D Orbit Map
Orbit Altitude Analysis Chart
Orbit Inclination Analysis Chart
Orbit Comprehensive Analysis Chart
View Comprehensive Chart